CDT,Max TemperatureF,Mean TemperatureF,Min TemperatureF,Max Dew PointF,MeanDew PointF,Min DewpointF,Max Humidity, Mean Humidity, Min Humidity, Max Sea Level PressureIn, Mean Sea Level PressureIn, Min Sea Level PressureIn, Max VisibilityMiles, Mean VisibilityMiles, Min VisibilityMiles, Max Wind SpeedMPH, Mean Wind SpeedMPH, Max Gust SpeedMPH,PrecipitationIn, CloudCover, Events, WindDirDegrees
2011-10-1,64,52,39,35,33,31,82,55,28,30.38,30.29,30.20,10,10,10,12,6,,0.00,0,,138
2011-10-2,82,64,46,41,38,34,66,44,21,30.23,30.16,30.10,10,10,10,9,7,17,0.00,0,,175
2011-10-3,82,66,51,45,41,39,74,43,21,30.20,30.16,30.12,10,10,9,15,5,,0.00,0,,161
2011-10-4,86,68,53,43,39,37,69,38,20,30.17,30.10,30.03,10,10,10,14,6,20,0.00,0,,135
2011-10-5,89,76,64,48,45,39,50,38,22,30.08,30.04,29.99,10,10,10,15,9,18,0.00,0,,141
2011-10-6,84,68,55,48,44,38,67,43,20,30.08,30.02,29.97,10,10,8,21,10,29,0.00,0,,139
2011-10-7,84,75,66,59,54,48,57,48,39,29.97,29.89,29.81,10,10,10,30,16,41,0.00,4,,168
2011-10-8,84,75,69,61,56,51,71,52,40,30.11,30.01,29.89,10,10,10,22,14,29,0.03,5,,198
2011-10-9,84,74,63,60,52,47,72,51,27,30.20,30.14,30.10,10,10,10,16,7,24,0.00,2,,157
2011-10-10,77,66,57,58,52,47,93,67,36,30.09,29.99,29.91,10,9,7,20,8,20,0.02,2,Rain,148
2011-10-11,78,64,54,55,51,47,90,64,38,29.90,29.84,29.78,10,9,4,15,8,,0.08,2,Rain,166
2011-10-12,68,60,55,58,56,52,100,89,70,29.77,29.70,29.66,10,6,0,34,5,46,0.72,7,Rain-Thunderstorm,143
2011-10-13,62,56,51,56,50,40,100,82,46,29.66,29.64,29.62,10,6,0,16,5,25,0.02,6,Fog-Rain,291
2011-10-14,57,52,48,45,40,36,83,67,45,29.82,29.71,29.64,10,10,10,25,12,33,0.00,4,,296
2011-10-15,61,50,39,40,37,34,89,61,38,29.90,29.85,29.82,10,10,10,17,11,28,0.00,3,Rain,272
2011-10-16,57,50,44,41,35,28,80,57,34,29.88,29.85,29.82,10,10,10,22,10,33,0.00,1,,273
2011-10-17,57,47,37,32,30,25,82,50,29,29.89,29.86,29.83,10,10,10,23,12,31,0.00,0,,282
2011-10-18,46,44,42,34,32,29,71,62,51,30.06,29.98,29.87,10,10,10,16,12,25,0.00,7,Rain,332
2011-10-19,48,42,39,34,31,28,73,64,53,30.12,30.08,30.03,10,10,9,13,8,20,0.00,6,,2
2011-10-20,55,44,36,33,31,29,82,65,40,30.03,29.98,29.92,10,10,10,15,8,20,0.00,0,,336
2011-10-21,62,46,30,38,32,27,92,63,34,30.07,30.01,29.97,10,10,10,12,4,,0.00,0,,235
2011-10-22,61,50,41,39,35,32,86,57,36,30.13,30.06,29.96,10,10,10,9,5,,0.00,1,,19
2011-10-23,59,50,42,46,42,33,92,76,61,29.94,29.86,29.79,10,10,6,12,6,,0.03,3,Rain,260
2011-10-24,63,50,37,44,39,34,93,73,48,30.04,29.99,29.95,10,10,10,8,4,,0.00,2,,232
2011-10-25,55,49,43,42,37,33,80,61,51,30.04,29.90,29.83,10,10,9,18,11,31,0.00,4,,46
2011-10-26,48,44,39,38,36,35,86,73,61,30.12,30.07,30.04,10,10,10,10,6,,0.00,6,Rain,315
2011-10-27,52,44,36,36,31,25,93,67,41,30.10,30.07,30.04,10,9,5,9,4,,0.00,3,Rain,261
2011-10-28,55,44,34,33,26,23,79,53,30,30.08,30.04,30.01,10,10,5,17,6,24,0.00,2,,265
2011-10-29,54,40,27,29,24,21,85,55,30,30.08,30.02,29.91,10,10,10,10,4,,0.00,2,,185
2011-10-30,48,44,39,37,31,21,87,63,34,29.95,29.87,29.79,10,10,10,15,8,18,0.00,6,,296
2011-10-31,52,40,30,36,32,28,100,80,48,30.04,29.99,29.91,10,6,0,9,4,,0.00,3,Fog,218